Content
SEND FEEDBACK

Daily
Averages
Monthly
Summary
Canada

ANCIENNE LORETTE, QUEBEC


Home > North America > Canada > Quebec
Elevation: 230 feet     Latitude: 46 48N     Longitude: 071 22W

WEATHER
 
SELECT A DAY
Number of Records: 192,737;   Date Range: 6/30/96 - 9/8/14
 
SHARE

PRINT THIS DATA

[ ← Previous Day ]
WEATHER ALMANAC - JANUARY 26, 2014
[ Next Day → ]
[ °C ]   °F
Weather ElementAverageHighLow
Temperature0.6 °F17.6 °F (12:22 am)-9 °F (7:00 pm)
Dewpoint-7.3 °F14 °F (12:22 am)-18 °F (7:00 pm)
Humidity66.8 %93 % (1:16 am)42 % (1:00 pm)
Barometer29.56 in29.84 in (11:00 pm)29.19 in (1:00 am)
Wind Speed14.2 mph34.5 mph (3:00 am)
Wind Gust49.5 mph (3:00 am)
Weather ElementAverage
Visibility10.3 mi
Wind DirectionSSW (186.1 °)

Weather ElementTotal
Precipitation---
Heating Degree Days60.7 (Base 65)
Averaged from 36 records on January 26, 2014
WEATHER CONDITIONS BREAKOUT
WIND DIRECTION BREAKOUT
WEATHER BY HOUR - JANUARY 26, 2014
[ °C ]   °F
Local TimeTemperatureDewpointHumidityBarometerVisibilityWind DirectionWind SpeedGust SpeedPrecipitationEventsConditions
12:22 AM17.6 °F14.0 °F86 %29.21 in1.0 miNE (50°)3.5 mphSnowLight Snow
1:00 AM16.0 °F14.0 °F90 %29.19 inESE (110°)1.2 mph
1:00 AM17.6 °F14.0 °F86 %29.19 in1.0 miCalmSnowLight Snow
1:16 AM15.8 °F14.0 °F93 %29.19 in1.0 miCalmSnowLight Snow
2:00 AM15.8 °F14.0 °F93 %29.19 in1.5 miWSW (250°)2.3 mphSnowLight Snow
3:00 AM15.8 °F12.2 °F86 %29.20 in0.2 miWSW (240°)34.5 mph49.5 mphSnowHeavy Snow
3:18 AM14.0 °F8.6 °F79 %29.22 in2.0 miSW (230°)33.4 mph46.0 mphSnowLight Snow
4:00 AM13.0 °F9.0 °F75 %29.26 inWSW (240°)16.1 mph
4:00 AM12.2 °F6.8 °F79 %29.25 in3.0 miSW (230°)33.4 mphSnowLight Snow
5:00 AM6.8 °F-0.4 °F72 %29.31 in5.0 miWSW (250°)23.0 mph33.4 mphSnowLight Snow Showers
6:00 AM-0.4 °F-7.6 °F72 %29.39 in5.0 miWSW (240°)25.3 mph33.4 mphSnowLight Snow Showers
7:00 AM-4.0 °F-11.0 °F57 %29.46 inWest (270°)24.2 mph
7:00 AM-5.8 °F-13.0 °F71 %29.46 in12.0 miWSW (250°)24.2 mph32.2 mphPartly Cloudy
8:00 AM-5.8 °F-14.8 °F65 %29.53 in20.0 miWSW (250°)23.0 mph29.9 mphPartly Cloudy
9:00 AM-5.8 °F-16.6 °F60 %29.57 in20.0 miWSW (250°)20.7 mph31.1 mphScattered Clouds
10:00 AM-6.0 °F-15.0 °F48 %29.61 inWest (260°)17.3 mph
10:00 AM-5.8 °F-16.6 °F60 %29.60 in20.0 miWSW (250°)20.7 mph27.6 mphScattered Clouds
11:00 AM-5.8 °F-16.6 °F60 %29.63 in20.0 miWest (260°)24.2 mph32.2 mphScattered Clouds
12:00 PM-4.0 °F-16.6 °F55 %29.63 in20.0 miWSW (250°)20.7 mph29.9 mphScattered Clouds
1:00 PM-4.0 °F-15.0 °F42 %29.65 inWest (260°)16.1 mph
1:00 PM-4.0 °F-14.8 °F60 %29.64 in20.0 miWSW (250°)21.9 mphScattered Clouds
2:00 PM-2.2 °F-14.8 °F55 %29.68 in20.0 miWSW (240°)18.4 mph27.6 mphPartly Cloudy
3:00 PM-2.2 °F-14.8 °F55 %29.70 in15.0 miWSW (250°)17.3 mph23.0 mphIce Crystals
4:00 PM-3.0 °F-12.0 °F51 %29.72 inWSW (240°)9.2 mph
4:00 PM-4.0 °F-13.0 °F65 %29.72 in7.0 miWSW (240°)15.0 mph21.9 mphIce Crystals
5:00 PM-4.0 °F-14.8 °F60 %29.75 in10.0 miWSW (240°)16.1 mphIce Crystals
6:00 PM-4.0 °F-14.8 °F60 %29.79 in10.0 miSW (230°)13.8 mphIce Crystals
7:00 PM-5.8 °F-16.6 °F60 %29.79 in15.0 miWSW (240°)5.8 mphScattered Clouds
7:00 PM-9.0 °F-18.0 °F49 %29.78 inWSW (240°)3.5 mph
8:00 PM-5.8 °F-14.8 °F65 %29.81 in15.0 miWSW (250°)3.5 mphOvercast
9:00 PM-4.0 °F-14.8 °F60 %29.83 in15.0 miCalmOvercast
9:45 PM-4.0 °F-13.0 °F65 %29.83 in10.0 miNE (40°)5.8 mphSnowLight Snow
10:00 PM-5.0 °F-12.0 °F56 %29.83 inNNE (30°)2.3 mph
10:00 PM-4.0 °F-13.0 °F65 %29.83 in6.0 miNE (40°)5.8 mphSnowLight Snow
11:00 PM-5.8 °F-13.0 °F71 %29.84 in6.0 miNNE (20°)4.6 mphSnowLight Snow
11:37 PM-7.6 °F-13.0 °F77 %29.83 in8.0 miNorth (10°)5.8 mphScattered Clouds
Hourly data recorded from CYQB, located miles away from Ancienne Lorette, Quebec







STORIES FROM OUR PARTNERS